Regional Weather Roundup
Issued by NWS Memphis, TN

Home | Current Version | Previous Version | Text Only | Print | Product List | Glossary On
Versions: 1 2 3 4 5 6 7 8 9 10 11 12 13 14 15 16 17 18 19 20 21 22 23 24 25 26 27 28 29 30 31 32 33 34 35 36 37 38 39 40 41 42 43 44 45 46 47 48 49 50
000
ASUS44 KMEG 202210
RWRMEG
MEMPHIS CWA HOURLY WEATHER ROUNDUP
NATIONAL WEATHER SERVICE MEMPHIS TN
500 PM CDT MON OCT 20 2014

...WEST TENNESSEE...

CITY           SKY/WX    TMP DP  RH WIND       PRES   REMARKS
MEMPHIS INTL   MOSUNNY   71  51  49 SW7       30.00F
NWS MEMPHIS      N/A     71 N/A N/A MISG        N/A
JACKSON        MOSUNNY   69  51  52 W9        30.00S
LEXINGTON      SUNNY     68  50  52 SW6       29.99S
SAVANNAH       MOSUNNY   68  50  52 W5        30.00F
DYERSBURG      MOSUNNY   70  46  43 SW7       30.00S
UNION CITY     SUNNY     70  54  56 SW10      29.96F
PARIS          SUNNY     66  52  59 SW9       29.97F
HUNTINGDON     PTSUNNY   68  50  52 SW7       29.98F


...EASTERN ARKANSAS...

CITY           SKY/WX    TMP DP  RH WIND       PRES   REMARKS
JONESBORO      MOSUNNY   73  53  49 W9        29.98F
WEST MEMPHIS   SUNNY     71  53  52 SW6       29.99F
BATESVILLE     SUNNY     72  57  60 SW9       30.00R
NEWPORT        SUNNY     75  56  51 SW9       30.00S
WALNUT RIDGE   CLOUDY    73  55  53 W6        29.98S
BLYTHEVILLE    MOSUNNY   73  55  53 W7        29.98F
SEARCY         PTSUNNY   71  56  58 S6        30.01F
STUTTGART      SUNNY     73  52  46 W7        30.03F
PINE BLUFF     MOSUNNY   71  54  54 W8        30.03F
MONTICELLO     SUNNY     73  53  49 N3        30.03F


...NORTH MISSISSIPPI...

CITY           SKY/WX    TMP DP  RH WIND       PRES   REMARKS
TUPELO         MOSUNNY   72  50  45 VRB5      30.01S
OXFORD         SUNNY     68  48  49 W5        30.04S
OLIVE BRANCH   MOSUNNY   70  52  52 SW8       30.01F
TUNICA         SUNNY     72  50  46 W3        30.01F
CLARKSDALE     SUNNY     72  50  46 NW7       30.03S
CORINTH        PTSUNNY   70  50  49 W5        30.00F
GRENADA          N/A    N/A N/A N/A MISG        N/A
GREENWOOD      SUNNY     72  48  42 NW3       30.03S
STARKVILLE     FAIR      72  48  43 CALM      30.01S
GOLDEN TRIANGL SUNNY     75  48  38 N5        30.00F


...SOUTHEAST MISSOURI...

CITY           SKY/WX    TMP DP  RH WIND       PRES   REMARKS
WEST PLAINS    SUNNY     74  55  51 W7        30.00S
CAPE GIRARDEAU SUNNY     73  55  53 SW10      29.93S


...NORTHWEST ALABAMA...

CITY           SKY/WX    TMP DP  RH WIND       PRES   REMARKS
MUSCLE SHOALS  PTSUNNY   70  47  43 W6        30.01F


...MIDDLE TENNESSEE...

CITY           SKY/WX    TMP DP  RH WIND       PRES   REMARKS
NASHVILLE      MOSUNNY   66  49  54 SW7       29.98F
CLARKSVILLE    SUNNY     67  52  58 SW9       29.95F
COLUMBIA       CLOUDY    64  52  63 SW6       29.99S


...WESTERN KENTUCKY...

CITY           SKY/WX    TMP DP  RH WIND       PRES   REMARKS
PADUCAH        SUNNY     72  54  53 W15       29.93S
FORT CAMPBELL  SUNNY     68  53  58 SW13      29.94F


...CENTRAL ARKANSAS...

CITY           SKY/WX    TMP DP  RH WIND       PRES   REMARKS
LITTLE ROCK    MOSUNNY   73  53  49 W7        30.03S


SKY/WX REPORTED AS FAIR MEANS FEW OR NO CLOUDS BELOW
12 THOUSAND FEET.



USA.gov is the U.S. government's official web portal to all federal, state and local government web resources and services.